Location: Atherton
(17.2661°S, 145.4859°E)
Time: 00:02:20
(UTC+10:00)

Vanguard 1 - Pass Details

Date: 03 July 2025
Orbit: 649 x 3822 km, 34.2° (Epoch: 17 July)

Event Time Altitude Azimuth Distance (km) Brightness Sun altitude
Rises 01:52:00 0° 252° (WSW) 3,805 - -68.2°
Reaches altitude 10° 01:55:30 10° 264° (W) 2,499 - -67.4°
Maximum altitude 01:59:53 25° 319° (NW) 1,420 - -66.4°
Drops below altitude 10° 02:03:33 10° 15° (NNE) 2,042 - -65.6°
Sets 02:06:05 0° 30° (NNE) 2,953 - -65.0°
